www.pogodaiklimat.ru

Погода и климат >> Архив погоды >> Россия >> Краснодарский край >> Краснодар


АРХИВ ПОГОДЫ в Краснодаре

Время (UTC), дата Ветер
(напр.,м/с)
 
Видим.   Явления Облачность Т
(С)
Тd
(С)
f
(%)
Тe
(С)
Тes
(С)
Комфортность P
(гПа)
Po
(гПа)
Тmin
(С)
Tmax
(С)
R
(мм)
S
(см)
00 14.02 С 1 10 км 5/5 1000 м
[Sc]
-5.3 -9.1 75 -7 -7 прохладно 1029.7 1025.8
03 14.02 В 1 10 км 3/3 1000 м
[Sc]
-6.4 -9.3 80 -9 -9 прохладно 1029.2 1025.2 -6.5
06 14.02 З 1 10 км 9/9 600 м
[Sc]
-4.6 -8.2 76 -7 -7 прохладно 1029.1 1025.2 -6.9
09 14.02 З 1 10 км 9/8 600 м
[Sc Ac trans]
-1.2 -8.3 58 -3 -2 по сезону 1027.6 1023.7
12 14.02 ЮЗ 3 10 км 4/4 1000 м
[Sc]
+1.2 -9.1 46 -2 -1 прохладно 1024.0 1020.2
15 14.02 ЮЗ 3 10 км 9/1 1000 м
[Sc Ac trans Cc]
-0.7 -7.7 59 -5 -5 прохладно 1021.7 1017.9 +1.5
18 14.02 ЮЗ 3 10 км 10/8 600 м
[Sc Ac und]
+0.1 -5.0 69 -4 -4 по сезону 1017.9 1014.1
21 14.02 З 5-11
{11}
2000 м снег [диам. отлож. мокр. снега 0 мм] 10/10 200 м
[Frnb Ns]
-1.2 -1.9 95 -8 -8 прохладно 1016.3 1012.4
00 15.02 З 2
{11}
4000 м слабый снег 10/10 200 м
[Frnb Ns]
-1.5 -2.1 96 -6 -6 по сезону 1014.6 1010.8
03 15.02 З 2 10 км в посл. час снег 10/10 300 м
[Frnb Ns]
-3.0 -3.8 94 -7 -7 прохладно 1015.0 1011.2 -3.0 14 8
06 15.02 ЮЗ 2 10 км в посл. час ливневой снег 10/10 600 м
[Sc]
-2.2 -3.2 93 -6 -6 по сезону 1015.7 1011.9 -3.3
09 15.02 ЮЗ 2 4000 м слабый снег 10/10 1000 м
[Sc]
-0.4 -1.5 92 -4 -4 прохладно 1016.5 1012.7
12 15.02 З 3 4000 м слабый ливневой снег 10/10 300 м
[Cb cap]
+1.2 -0.6 88 -3 -3 прохладно 1017.3 1013.5
15 15.02 СЗ 2 4000 м слабый снег {ливн. осадки} 10/10 300 м
[Sc diur, vesp]
+0.5 -1.0 90 -3 -3 прохладно 1019.8 1016.0 +1.3 1
18 15.02 З 1 10 км {ливн. осадки, снег} 8/8 300 м
[St]
+0.2 -3.0 79 -2 -2 по сезону 1022.5 1018.7
21 15.02 С 1 10 км 9/9 600 м
[Sc]
-0.8 -5.6 70 -3 -3 по сезону 1024.6 1020.7
00 16.02 С 1 10 км 9/9 600 м
[Sc]
-2.2 -6.7 71 -4 -4 по сезону 1026.0 1022.1
03 16.02 З 1 4000 м слабый снег 10/10 300 м
[Frnb]
-2.3 -6.4 73 -4 -4 по сезону 1026.4 1022.5 -2.6 5
06 16.02 С 1 4000 м слабый ливневой снег 10/8 600 м
[Cb cap Ac und]
-2.0 -5.4 78 -4 -4 по сезону 1027.7 1023.8 -2.6
09 16.02 С 1 10 км {ливн. осадки} 8/4 600 м
[Sc Ac trans]
+1.1 -6.5 57 -0 +3 по сезону 1027.9 1024.0
12 16.02 С 2 10 км {ливн. осадки} 3/3 1000 м
[Sc]
+0.4 -8.2 52 -2 0 прохладно 1028.1 1024.2
15 16.02 С 2 10 км 3/3 1000 м
[Sc]
-3.1 -8.6 66 -7 -7 холодно 1029.7 1025.8 +1.8
18 16.02 С 1 10 км ясно -5.3 -9.7 71 -7 -7 холодно 1031.3 1027.3
21 16.02 С 1 10 км ясно -6.5 -9.5 79 -9 -9 холодно 1031.9 1027.9
00 17.02 В 1 10 км ясно -8.6 -10.2 88 -11 -11 холодно 1032.3 1028.3
03 17.02 штиль 0 4000 м дымка ясно -10.2 -11.5 90 -11 -11 холодно 1032.3 1028.3 -10.2 4
06 17.02 штиль 0 200 м туман [диам. изморози 1 мм] ?/? -9.7 -11.1 89 -10 -10 холодно 1032.9 1028.9 -12.1
09 17.02 В 1 10 км {туман} ясно -3.5 -8.7 67 -5 +3 прохладно 1032.6 1028.6
12 17.02 СВ 1 10 км {туман} ясно -1.4 -9.7 53 -3 +1 холодно 1031.1 1027.2
15 17.02 В 1 10 км ясно -4.3 -10.4 62 -6 -6 холодно 1030.5 1026.5 -1.1
18 17.02 В 1 10 км ясно -5.9 -9.8 74 -8 -8 холодно 1030.7 1026.7
21 17.02 В 1 10 км 4/0
[Ac trans]
-6.5 -10.0 76 -9 -9 холодно 1029.6 1025.7
00 18.02 В 1 10 км ясно -7.2 -10.1 80 -10 -10 холодно 1029.1 1025.1
03 18.02 СВ 1 10 км 10/0
[Cs]
-7.4 -10.4 79 -10 -10 холодно 1028.4 1024.5 -7.7 4
06 18.02 В 2 10 км 10/0
[Cs]
-4.3 -9.3 68 -8 -7 прохладно 1028.3 1024.4
09 18.02 В 2 10 км 10/0
[As trans]
+1.4 -7.1 53 -1 +1 по сезону 1027.1 1023.3
12 18.02 Ю 3 10 км 10/0
[Ac trans Cs]
+5.5 -3.3 53 +3 +5 по сезону 1025.6 1021.9
15 18.02 ЮЗ 2 10 км 6/0
[Ac trans]
+3.8 -4.3 55 +2 +2 по сезону 1026.0 1022.2 +5.9
18 18.02 В 1 10 км ясно +0.2 -5.6 65 -1 -1 по сезону 1026.4 1022.6
21 18.02 В 1 10 км ясно -1.2 -6.1 69 -3 -3 по сезону 1027.1 1023.2
00 19.02 В 1 10 км 9/8 1000 м
[Sc Ac trans]
-1.4 -6.6 68 -3 -3 по сезону 1027.3 1023.5
03 19.02 В 2 10 км 8/0
[Ac trans]
-2.3 -6.5 73 -6 -6 по сезону 1028.4 1024.5 -2.3 2
06 19.02 В 2 10 км 6/0
[Ac trans Ci fib]
-0.5 -6.4 64 -4 -2 по сезону 1029.2 1025.3 -2.8
09 19.02 Ю 1 10 км 5/0
[Ci fib]
+8.9 -4.2 39 +9 +16 тепло 1029.0 1025.3
12 19.02 ЮЗ 2 10 км 10/3 1000 м
[Cu med, cong Ac trans Ci]
+10.8 -1.7 42 +10 +11 тепло 1028.3 1024.6
15 19.02 СВ 1 10 км 8/0
[Ac lent Cc]
+6.1 -2.3 55 +6 +6 тепло 1028.8 1025.0 +11.3
18 19.02 СВ 1 10 км ясно +1.3 -4.0 68 -0 -0 по сезону 1028.4 1024.6
21 19.02 штиль 0 10 км 9/9
[Sc]
+1.1 -3.8 70 0 0 по сезону 1027.8 1024.0
00 20.02 штиль 0 10 км 3/0
[Ac trans Ci fib]
-1.5 -4.4 81 -3 -3 по сезону 1027.2 1023.3
03 20.02 В 1 10 км 8/0
[Ac trans]
+0.5 -4.9 67 -1 -1 по сезону 1026.3 1022.5 -1.7
06 20.02 В 1 10 км 8/4 1000 м
[Sc Ac trans]
+0.9 -4.4 68 -1 0 по сезону 1026.2 1022.4
09 20.02 В 2 10 км 10/0
[Ac trans Ci fib]
+10.0 -7.3 29 +9 +14 тепло 1024.5 1020.8
12 20.02 В 2 10 км 10/0
[Ci fib]
+11.8 -7.5 25 +11 +14 тепло 1021.6 1017.9
15 20.02 В 2 10 км 10/3 1000 м
[Sc Ci fib]
+8.9 -3.7 41 +8 +8 тепло 1020.4 1016.7 +12.2
18 20.02 В 1 10 км 10/4 1000 м
[Sc Ci fib]
+6.5 -2.7 52 +6 +6 тепло 1019.2 1015.5
21 20.02 В 1 10 км 10/4 1000 м
[Sc Ac trans Ci fib]
+4.9 -2.5 59 +4 +4 тепло 1017.8 1014.0

 

Местоположение метеостанции Краснодар (Краснодарский край, Россия): широта 45.05 долгота 39.03 высота над уровнем моря 29 м.

В архиве по умолчанию представлена погода в Краснодаре за последнюю неделю. Архивные данные за месяц целиком и за предыдущие месяцы, начиная с января 2011 года, Вы можете получить, выбрав интересующий диапазон дат из раскрывающегося списка и нажав кнопку "Ввод!".

Внимание! Время в таблицах - всемирное. Для получения местного времени необходимо прибавить поправку, которая в Краснодаре равна 3 ч.

Смотрите также архив погоды в соседних городах и на ближайших метеорологических станциях:

Погода в Горячем Ключе (Краснодарский край, Россия) (47 км)
Погода в Усть-Лабинске (Краснодарский край, Россия) (58 км)
Погода в Кореновске (Краснодарский край, Россия) (59 км)
Погода в Тимашевске (Краснодарский край, Россия) (65 км)
Погода в Славянске-на-Кубани (Краснодарский край, Россия) (76 км)
Погода в Белореченске (Краснодарский край, Россия) (76 км)
Погода в Крымске (Краснодарский край, Россия) (82 км)
Погода в Джубге (Краснодарский край, Россия) (84 км)
Погода в Горном (Краснодарский край, Россия) (88 км)
Погода в Геленджике (Краснодарский край, Россия) (92 км)

Пояснения к столбцам:

Ветер - указаны скорость ветра в м/с - средняя за 10 мин, порывы в срок и между сроками (в фигурных скобках) и направление, откуда дует ветер: С - северный, СВ - северо-восточный, В - восточный, ЮВ - юго-восточный, Ю - южный, ЮЗ - юго-западный, З - западный, СЗ - северо-западный.
Видимость - горизонтальная дальность видимости в метрах или километрах. При видимости от 1 до 10 км при отсутствии осадков обычно наблюдается дымка, при ухудшении видимости до 1 км и менее - туман. В сухую погоду видимость может ухудшаться дымом, пылью или мглою.
Явления - указаны атмосферные явления, наблюдавшиеся в срок или в последний час перед сроком; фигурными скобками обозначены явления, наблюдавшиеся между сроками (за 1-3 часа до срока); квадратными скобками обозначены град или гололедные отложения с указанием их диаметра в мм.
Облачность - указаны через наклонную черту общая и нижняя облачность в баллах и высота нижней границы облаков в метрах; квадратными скобками обозначены формы облаков: Ci - перистые, Cs - перисто-слоистые, Cc - перисто-кучевые, Ac - высококучевые, As - высокослоистые, Sc - слоисто-кучевые, Ns - слоисто-дождевые, Cu - кучевые, Cb - кучево-дождевые. Подробнее классификацию облаков см. в Атласе облаков (PDF).
T - Температура воздуха - температура, измеренная на высоте 2 м над землей.
Td - Температура точки росы - температура, при понижении до которой содержащийся в воздухе водяной пар достигнет насыщения.
f - Относительная влажность воздуха - влажноcть воздуха, измеренная на высоте 2 м над землей.
Te - Эффективная температура - температура, которую ощущает одетый по сезону человек в тени. Характеристика душности погоды. При расчете учитывается влияние влажности воздуха и скорости ветра на теплоощущения человека.
Tes - Эффективная температура на солнце - температура, которую ощущает человек, с поправкой на солнечный нагрев. Характеристика знойности погоды. Зависит от высоты солнца над горизонтом, облачности и скорости ветра. Ночью, в пасмурную погоду, а также при ветре 12 м/с и более поправка равна нулю.
P - Атмосферное давление - приведенное к уровню моря атмосферное давление.
Po - Атмосферное давление - измеренное на уровне метеостанции атмосферное давление.
Tmin - Минимальная температура - минимум температуры воздуха на высоте 2 м над землей.
Tmax - Максимальная температура - максимум температуры воздуха на высоте 2 м над землей.
R - Количество осадков - Количество выпавших осадков, мм. При наведении курсора мыши на число - период времени, за который выпало указанное количество осадков.
S - Снежный покров - Высота снежного покрова, см. При наведении курсора мыши на число - состояние снежного покрова и степень покрытия местности в баллах.